Location: Stoke Bliss
(52.2667°N, 2.5167°W)
Time: 16:34:27
(UTC+00:00)

SJ-6B - Pass Details

Date: 03 March 2021
Orbit: 509 x 581 km, 97.6° (Epoch: 17 April)

Event Time Altitude Azimuth Distance (km) Brightness Sun altitude
Exits shadow 19:22:51 15° 143° (SE) 1,603 4.8 -14.4°
Maximum altitude 19:26:06 51° 70° (ENE) 730 3.1 -14.9°
Drops below altitude 10° 19:30:02 10° 355° (N) 1,872 5.7 -15.5°
Sets 19:32:12 0° 350° (N) 2,761 6.7 -15.9°
